Tracking 19245 objects as of 14-Aug-2018
HD Live streaming from Space Station
objects crossing your sky now

SHARC

Track SHARC now!
10-day predictions


NORAD ID: 42712
Int'l Code: 1998-067LT
Perigee: 374.4 km
Apogee: 377.5 km
Inclination: 51.6 °
Period: 91.9 minutes
Semi major axis: 6746 km
RCS: Unknown
Launch date: November 20, 1998
Source: United States (US)
Launch site: TYURATAM MISSILE AND SPACE COMPLEX (TTMTR)
aabbcc
Your satellite tracking list
Your tracking list is empty




NASA's NSSDC Master Catalog

Two Line Element Set (TLE):
1 42712U 98067LT  18225.84035691 +.00021172 +00000-0 +20338-3 0  9992
2 42712 051.6368 072.8562 0002268 065.1098 295.0133 15.66546116070724
Source of the keplerian elements: AFSPC